Location: Bas-Clignon
(44.2000°N, 6.6333°E)
Time: 13:31:36
(UTC+00:00)

Okean O Rocket - Pass Details

Date: 03 February 2023
Orbit: 621 x 643 km, 98.2° (Epoch: 19 March)

Event Time Altitude Azimuth Distance (km) Brightness Sun altitude
Rises 17:38:29 0° 128° (SE) 2,913 4.6 -9.8°
Reaches altitude 10° 17:41:05 10° 113° (ESE) 2,014 3.7 -10.3°
Maximum altitude 17:44:22 21° 64° (ENE) 1,432 2.8 -10.9°
Drops below altitude 10° 17:47:40 10° 16° (NNE) 2,036 3.9 -11.4°
Sets 17:50:18 0° 1° (N) 2,953 4.9 -11.9°
